Regional Weather Roundup
Issued by NWS Green Bay, WI

Home | Current Version | Previous Version | Graphics & Text | Print | Product List | Glossary On
Versions: 1 2 3 4 5 6 7 8 9 10 11 12 13 14 15 16 17 18 19 20 21 22 23 24 25 26 27 28 29 30 31 32 33 34 35 36 37 38 39 40 41 42 43 44 45 46 47 48 49 50
000
ASUS43 KGRB 221011
RWRGRB

NORTH-CENTRAL AND NORTHEAST WISCONSIN REGIONAL WEATHER ROUNDUP
NATIONAL WEATHER SERVICE GREEN BAY WI
500 AM CDT FRI MAY 22 2015

WIZ005-009-010>012-018-019-221100-
NORTH CENTRAL WISCONSIN

CITY           SKY/WX    TMP DP  RH WIND       PRES   REMARKS
IRONWOOD       CLEAR     32  28  86 CALM      30.13R
MANITOWISH WTR CLEAR     30  30 100 CALM      30.14R
ARBOR VITAE    CLEAR     33  30  88 CALM      30.15R
EAGLE RIVER    CLEAR     29  28  96 CALM      30.15R
LAND O LAKES   CLEAR     28  27  97 CALM      30.16R
RHINELANDER    CLEAR     34  28  79 CALM      30.15R
PHILLIPS       CLEAR     32  32 100 CALM      30.14R
ANTIGO         CLEAR     34  31  87 CALM      30.16R
TOMAHAWK       CLEAR     29  28  96 CALM      30.16R
MERRILL        CLEAR     32  31  99 CALM      30.17R
$$

WIZ013-073-221100-
NORTHEAST WISCONSIN

CITY           SKY/WX    TMP DP  RH WIND       PRES   REMARKS
IRON MOUNTAIN  CLEAR     28  22  78 N3        30.14R
MARINETTE      CLEAR     34  27  75 CALM      30.15R
OCONTO         CLEAR     30  30 100 CALM      30.16R
$$

WIZ017-030-035>037-045-221100-
CENTRAL WISCONSIN

CITY           SKY/WX    TMP DP  RH WIND       PRES   REMARKS
MEDFORD        CLEAR     33  31  93 NE3       30.15R
WAUSAU         CLEAR     37  35  92 E5        30.15R
MOSINEE        CLEAR     37  36  93 CALM      30.16R
MARSHFIELD     CLEAR     41  34  76 E5        30.15R
WISC RAPIDS    CLEAR     39  34  82 CALM      30.17R
STEVENS POINT  CLEAR     34  32  93 CALM      30.17R
WAUPACA        CLEAR     38  35  90 CALM      30.17R
SHAWANO        CLEAR     38  36  90 CALM      30.16R
CLINTONVILLE   CLEAR     34  34 100 CALM      30.16R FOG
$$

WIZ038-039-048-051-221100-
FOX VALLEY

CITY           SKY/WX    TMP DP  RH WIND       PRES   REMARKS
NWS GREEN BAY  CLEAR     38  34  85 CALM      30.16R
APPLETON       CLEAR     37  28  70 N5        30.16R
OSHKOSH        CLEAR     45  29  53 E3        30.15R
FOND DU LAC    CLEAR     37  30  75 CALM      30.15R
$$

WIZ022-050-052-221100-
EAST CENTRAL WISCONSIN

CITY           SKY/WX    TMP DP  RH WIND       PRES   REMARKS
STURGEON BAY   CLEAR     39  28  65 N6        30.17R
MANITOWOC      CLEAR     36  33  89 NW3       30.16R
SHEBOYGAN      CLEAR     38  32  79 NW5       30.15R
$$

LMZ563-521-522-541>543-221100-
LAKESHORE

STATION/POSITION TIME  TEMP    WIND        PRES    VSBY  WAVE
                       AIR SEA DIR/SP/G                  HT/PER
                 (UTC) (F)     (DEG/KT/KT) (MB)    (MI)  (FT/S)
SHEBOYGAN LKSHOR 1000          330/  6/  7 1021.4R
KEWAUNEE LKSHORE 0900          300/  3/  5 1019.6R
NORTHPORT PIER   0900   45     320/  9/ 10 1020.0R
N MID LAKE BUOY  0950   38 36  300/  6/  8 1021.0R         1/ 3
SISTER BAY LKSHO 0917   44      20/  6/  8   N/A
CHAMBERS ISLAND  0900   44     300/  5/  7 1020.7R
MENOMINEE LKSHOR 0900   42     300/  4/  6 1021.0R
$$



USA.gov is the U.S. government's official web portal to all federal, state and local government web resources and services.